Weather History for KMFV - July, 2013

Change the Weather History Date:

Saturday, July 27, 2013

  Actual Average (KWAL) Record (KWAL)
Temperature  
Mean Temperature 76 °F 77 °F  
Max Temperature 86 °F 85 °F 98 °F (2012)
Min Temperature 66 °F 69 °F 60 °F (1977)
Degree Days  
Heating Degree Days 0    
Month to date heating degree days  
Since 1 June heating degree days  
Since 1 July heating degree days  
Cooling Degree Days 11    
Month to date cooling degree days  
Year to date cooling degree days  
Since 1 June cooling degree days  
Growing Degree Days 26 (Base 50)    
Moisture  
Dew Point 65 °F    
Average Humidity 72    
Maximum Humidity 94    
Minimum Humidity 45    
Precipitation  
Precipitation 0.00 in 0.16 in 0.68 in (2008)
Month to date precipitation 3.43  
Year to date precipitation 22.54  
Sea Level Pressure  
Sea Level Pressure 30.04 in    
Wind  
Wind Speed 4 mph (SSE)    
Max Wind Speed 9 mph    
Max Gust Speed -    
Visibility 9 miles    
Events      
T = Trace of Precipitation, MM = Missing Value Source: NWS Daily Summary

Daily Weather History Graph

Daily Weather History Graph

Search for Another Location

Airport or City:

Trip Planner

Search our weather history database for the weather conditions in past years. The results will help you decide how hot, cold, wet, or windy it might be!

Date:

Astronomy

Jul. 27, 2013 Rise Set
Actual Time 6:02 AM EDT 8:15 PM EDT
Civil Twilight 5:33 AM EDT 8:45 PM EDT
Nautical Twilight 4:57 AM EDT 9:21 PM EDT
Astronomical Twilight 4:17 AM EDT 10:00 PM EDT
Moon 11:10 PM EDT (7/27) 11:33 AM EDT (7/27)
Length of Visible Light 15h 11m
Length of Day
14h 12m
Waning Gibbous, 71% of the Moon is Illuminated
Jul 27
Waning Gibbous
Jul 29
Last Quarter
Aug 6
New
Aug 14
First Quarter
Aug 20
Full

Hourly Weather History & Observations

Time (EDT) Temp. Heat Index Dew Point Humidity Pressure Visibility Wind Dir Wind Speed Gust Speed Precip Events Conditions
12:16 AM 71.6 °F - 68.0 °F 88% 30.10 in 10.0 mi South 4.6 mph - N/A   Clear
12:36 AM 71.6 °F - 66.2 °F 83% 30.09 in 10.0 mi South 4.6 mph - N/A   Clear
12:56 AM 71.6 °F - 66.2 °F 83% 30.09 in 10.0 mi South 3.5 mph - N/A   Clear
1:16 AM 69.8 °F - 66.2 °F 88% 30.09 in 7.0 mi SSE 3.5 mph - N/A   Clear
1:36 AM 69.8 °F - 66.2 °F 88% 30.08 in 7.0 mi South 3.5 mph - N/A   Clear
1:55 AM 69.8 °F - 66.2 °F 88% 30.08 in 7.0 mi South 3.5 mph - N/A   Clear
2:15 AM 69.8 °F - 66.2 °F 88% - 10.0 mi SSE 4.6 mph - N/A   Clear
2:35 AM 69.8 °F - 66.2 °F 88% 30.07 in 7.0 mi SSE 3.5 mph - N/A   Clear
2:56 AM 69.8 °F - 66.2 °F 88% 30.07 in 10.0 mi SSE 3.5 mph - N/A   Clear
3:15 AM 69.8 °F - 66.2 °F 88% 30.06 in 10.0 mi SSE 3.5 mph - N/A   Clear
3:36 AM 69.8 °F - 66.2 °F 88% 30.06 in 10.0 mi South 4.6 mph - N/A   Clear
3:56 AM 66.2 °F - 64.4 °F 94% 30.06 in 3.0 mi SSW 3.5 mph - N/A   Clear
4:15 AM 66.2 °F - 64.4 °F 94% 30.06 in 1.5 mi South 4.6 mph - N/A   Mist
4:36 AM 66.2 °F - 64.4 °F 94% 30.06 in 1.0 mi Calm Calm - N/A   Mist
4:56 AM 66.2 °F - 64.4 °F 94% 30.06 in 5.0 mi Calm Calm - N/A   Clear
5:15 AM 66.2 °F - 64.4 °F 94% 30.06 in - South 3.5 mph - N/A   Clear
5:36 AM 66.2 °F - 64.4 °F 94% 30.06 in 3.0 mi SSE 3.5 mph - N/A   Clear
5:55 AM 66.2 °F - 64.4 °F 94% 30.06 in 2.0 mi Calm Calm - N/A   Clear
6:16 AM 66.2 °F - 64.4 °F 94% 30.06 in 2.5 mi Calm Calm - N/A   Clear
6:36 AM 66.2 °F - 64.4 °F 94% 30.06 in 4.0 mi Calm Calm - N/A   Clear
6:55 AM 66.2 °F - 64.4 °F 94% 30.06 in 5.0 mi Calm Calm - N/A   Clear
7:16 AM 66.2 °F - 64.4 °F 94% 30.07 in 5.0 mi South 3.5 mph - N/A   Clear
7:35 AM 71.6 °F - 69.8 °F 94% 30.07 in 7.0 mi SSE 3.5 mph - N/A   Clear
7:55 AM 73.4 °F - 69.8 °F 88% 30.07 in 10.0 mi Calm Calm - N/A   Clear
8:15 AM 75.2 °F - 69.8 °F 83% 30.08 in 10.0 mi South 3.5 mph - N/A   Clear
8:35 AM 77.0 °F - 69.8 °F 78% 30.08 in 10.0 mi South 3.5 mph - N/A   Scattered Clouds
8:55 AM 77.0 °F - 68.0 °F 74% 30.08 in 10.0 mi SSW 5.8 mph - N/A   Mostly Cloudy
9:15 AM 77.0 °F - 68.0 °F 74% 30.08 in 10.0 mi SSW 3.5 mph - N/A   Scattered Clouds
9:35 AM 78.8 °F - 68.0 °F 69% 30.08 in 10.0 mi WSW 3.5 mph - N/A   Clear
9:56 AM 80.6 °F 82.7 °F 66.2 °F 61% 30.08 in 10.0 mi South 3.5 mph - N/A   Clear
10:15 AM 80.6 °F 82.3 °F 64.4 °F 58% 30.08 in 10.0 mi SW 4.6 mph - N/A   Clear
10:35 AM 82.4 °F 83.9 °F 64.4 °F 54% 30.08 in 10.0 mi SSW 5.8 mph - N/A   Clear
10:55 AM 82.4 °F 83.4 °F 62.6 °F 51% 30.07 in 10.0 mi SW 4.6 mph - N/A   Clear
11:15 AM 82.4 °F 83.4 °F 62.6 °F 51% 30.07 in 10.0 mi Calm Calm - N/A   Clear
11:35 AM 82.4 °F 82.9 °F 60.8 °F 48% 30.07 in 10.0 mi Calm Calm - N/A   Scattered Clouds
11:55 AM 82.4 °F 83.4 °F 62.6 °F 51% 30.07 in 10.0 mi Calm Calm - N/A   Scattered Clouds
12:15 PM 84.2 °F 85.0 °F 62.6 °F 48% 30.06 in 10.0 mi Calm Calm - N/A   Clear
12:35 PM 82.4 °F 83.4 °F 62.6 °F 51% 30.05 in 10.0 mi Calm Calm - N/A   Scattered Clouds
12:55 PM 84.2 °F 85.6 °F 64.4 °F 51% 30.05 in 10.0 mi WSW 4.6 mph - N/A   Scattered Clouds
1:15 PM 84.2 °F 85.0 °F 62.6 °F 48% 30.03 in 10.0 mi NE 4.6 mph - N/A   Scattered Clouds
1:37 PM 84.2 °F 85.0 °F 62.6 °F 48% 30.03 in 10.0 mi NE 3.5 mph - N/A   Scattered Clouds
1:55 PM 86.0 °F 86.6 °F 62.6 °F 45% 30.02 in 10.0 mi Calm Calm - N/A   Mostly Cloudy
2:15 PM 84.2 °F 85.6 °F 64.4 °F 51% 30.02 in 10.0 mi Calm Calm - N/A   Mostly Cloudy
2:35 PM 84.2 °F 85.6 °F 64.4 °F 51% 30.01 in 10.0 mi ESE 4.6 mph - N/A   Scattered Clouds
2:55 PM 84.2 °F 85.6 °F 64.4 °F 51% 29.99 in 10.0 mi ESE 4.6 mph - N/A   Scattered Clouds
3:15 PM 82.4 °F 83.4 °F 62.6 °F 51% 30.00 in 10.0 mi ESE 5.8 mph - N/A   Mostly Cloudy
3:35 PM 84.2 °F 85.0 °F 62.6 °F 48% 30.00 in 10.0 mi ESE 4.6 mph - N/A   Mostly Cloudy
3:55 PM 82.4 °F 82.9 °F 60.8 °F 48% 29.99 in 10.0 mi ESE 6.9 mph - N/A   Scattered Clouds
4:15 PM 82.4 °F 82.9 °F 60.8 °F 48% 30.00 in 10.0 mi SE 5.8 mph - N/A   Clear
4:35 PM 82.4 °F 83.4 °F 62.6 °F 51% 29.99 in 10.0 mi SSE 8.1 mph - N/A   Clear
4:56 PM 82.4 °F 83.4 °F 62.6 °F 51% 29.99 in 10.0 mi SE 5.8 mph - N/A   Clear
5:15 PM 82.4 °F 82.9 °F 60.8 °F 48% 29.99 in 10.0 mi SSE 5.8 mph - N/A   Clear
5:35 PM 82.4 °F 82.9 °F 60.8 °F 48% 30.00 in 10.0 mi SE 4.6 mph - N/A   Clear
5:55 PM 82.4 °F 83.4 °F 62.6 °F 51% 29.99 in 10.0 mi SE 9.2 mph - N/A   Clear
6:17 PM 80.6 °F 82.3 °F 64.4 °F 58% 30.00 in 10.0 mi SSE 6.9 mph - N/A   Clear
6:35 PM 80.6 °F 82.3 °F 64.4 °F 58% 30.00 in 10.0 mi SE 8.1 mph - N/A   Clear
6:55 PM 80.6 °F 82.3 °F 64.4 °F 58% 30.00 in 10.0 mi SE 4.6 mph - N/A   Clear
7:15 PM 78.8 °F - 66.2 °F 65% 30.00 in 10.0 mi SE 4.6 mph - N/A   Clear
7:35 PM 77.0 °F - 66.2 °F 69% 30.00 in 10.0 mi SE 4.6 mph - N/A   Clear
7:57 PM 75.2 °F - 66.2 °F 73% 30.00 in 10.0 mi SSE 3.5 mph - N/A   Clear
8:15 PM 75.2 °F - 66.2 °F 73% 30.00 in 10.0 mi SE 4.6 mph - N/A   Clear
8:35 PM 73.4 °F - 66.2 °F 78% 29.99 in 10.0 mi SE 4.6 mph - N/A   Clear
8:55 PM 73.4 °F - 66.2 °F 78% 30.00 in 10.0 mi Calm Calm - N/A   Clear
9:15 PM 73.4 °F - 66.2 °F 78% 29.99 in 10.0 mi Calm Calm - N/A   Clear
9:35 PM 71.6 °F - 68.0 °F 88% 29.99 in 10.0 mi SE 3.5 mph - N/A   Clear
9:55 PM 71.6 °F - 68.0 °F 88% 29.99 in 10.0 mi SSE 4.6 mph - N/A   Clear
10:15 PM 73.4 °F - 68.0 °F 83% 29.99 in 10.0 mi SE 4.6 mph - N/A   Clear
10:35 PM 73.4 °F - 68.0 °F 83% 29.98 in 10.0 mi SSE 6.9 mph - N/A   Clear
10:55 PM 73.4 °F - 69.8 °F 88% 29.98 in 10.0 mi SSE 8.1 mph - N/A   Clear
11:15 PM 73.4 °F - 69.8 °F 88% 29.98 in 10.0 mi South 4.6 mph - N/A   Clear
11:35 PM 73.4 °F - 68.0 °F 83% 29.98 in 10.0 mi South 3.5 mph - N/A   Clear
11:55 PM 73.4 °F - 68.0 °F 83% 29.98 in 10.0 mi South 3.5 mph - N/A   Clear